STARLINK-2534, 48311

Orbit data source: Space-Track

STARLINK-2534, 48311 is a payload satellite owned by SpaceX/Seattle (US) in LEO that was launched on Thu, 29 Apr 2021 UTC via an FALCON 9 launch vehicle from the Air Force Eastern Test Range (AFETR). Payload-class satellites include a variety of spacecraft equipped with specific instruments for various scientific and technological missions. These include communications satellites like Starlink; space stations such as the ISS; scientific satellites like the Hubble; Earth observation satellites from companies like Planet Labs, Umbra, and HawkEye 360; GPS; miniature CubeSats for education and research; and military/defense satellites.

Loading next visibility...
Identifier
48311, 2021-036AM
Orbit
LEO
Country
Flag of USUS
Related business
Manufacturer
SpaceX/Seattle
Mission
Operational Commercial Communications
Bus & Motor
STARLINK, Unknown motor
Mass
260 kg wet, ~248 kg dry
Launch date (UTC)
2021-04-29 (5 years ago)
Launch vehicle
FALCON 9
Launch site
Air Force Eastern Test Range (AFETR)
Object type
Payload
Rocket body
Debris
Shape & HBR
Box + 1 Pan, 10.1 m
Radar Cross Section
13.562 m², Large (>1 m²)

Expand to show TLE details & history
Last TLE update: 4 hours ago

TLE from 4 hours ago
0 STARLINK-2534
1 48311U 21036AM  26095.62733793  .00001100  00000-0  49306-4 0  9999
2 48311  53.1605 323.5115 0001791  90.6227 269.4979 15.30185994272342
Epoch: 2026-04-05T15:03Z
TLE epoch observation values (Epoch: 2026-04-05T15:03:21.997Z)
Latitude
-0°
Longitude
-96.2602°
Altitude
476.168 km
Speed
7.629 km/s
True Right ascension
21h 34m 02s
True Declination
0° 00' 00"
Sunlit
Object was in daylight at epoch
Visualization orbit readout
Latitude
Unknown
Longitude
Unknown
Altitude
Unknown
Speed
Unknown
Apparent Right ascension
Unknown
Apparent Declination
Unknown
Sunlit
N/A
Visualization observer readout
Local Sidereal Time
01:04:20
Azimuth
Unknown
Elevation
Unknown
Doppler factor
Unknown
Orbital elements
Apogee altitude
476.741 km
Perigee altitude
474.286 km
Semi-major axis
6,853.65 km
Eccentricity
0.00018
Inclination
53.1605°
RAAN
323.5115°
Arg. of periapsis
90.6227°
True anomaly
269.47738°
Mean anomaly
269.4979°
Eccentric anomaly
269.48764°
Mean motion
3.82525 °/min
Orbital period
94.11 mins
BSTAR
0.000049306
Loading maneuver chart data...
Computing Atmospheric mass density...
Loading historical data...
Loading historical data...
Loading historical data...
Loading historical data...
Loading historical data...
Loading historical data...
Loading historical data...

Documentation

Showing up to 5 results
|